Location: Radomski Observatory
(40.2854°N, 79.5145°W)
Time: 05:16:02
(UTC-04:00)

Daily predictions for brighter satellites

Satellite Brightness Start Highest point End
(mag) Time Altitude Azimuth Time Altitude Azimuth Time Altitude Azimuth
CENTAUR R/B 4.2 02:56:30 28° NE 02:56:30 28° NE 02:59:38 10° NE
SL-16 R/B 3.9 03:33:25 32° N 03:33:25 32° N 03:36:37 10° N
Cosmos 2322 Rocket 3.5 03:58:57 34° N 03:58:57 34° N 04:02:05 10° NNE
SL-16 R/B 3.4 04:04:10 36° N 04:04:10 36° N 04:07:31 10° NNE
Resurs 1-4 Rocket 3.5 04:05:27 10° N 04:08:11 31° N 04:08:11 31° N
COSMOS 2428 4.3 04:09:53 25° ESE 04:10:57 27° ESE 04:15:37 10° NE
CZ-2D R/B 3.4 04:07:36 10° N 04:10:47 35° N 04:10:47 35° N
Okean O Rocket 3.8 04:12:34 10° NE 04:15:57 21° E 04:16:33 20° ESE
FALCON 9 R/B 4.3 04:17:39 52° WSW 04:21:20 65° S 05:04:14 10° ESE
Lacrosse 4 Rocket 4.2 04:26:46 12° ESE 04:26:46 12° ESE 04:27:05 10° ESE
Cosmos 2184 Rocket 4.3 04:19:22 10° N 04:25:33 63° E 04:28:01 37° SSE
Cosmos 2360 Rocket 2.3 04:27:51 69° NE 04:27:51 69° NE 04:32:50 10° NNE
Cosmos 1455 Rocket 4.4 04:23:29 10° N 04:26:43 37° NE 04:26:43 37° NE
Cosmos 1980 Rocket 4.3 04:30:15 15° NNW 04:30:15 15° NNW 04:32:10 10° NNW
ADEOS II 3.7 04:29:56 10° NE 04:34:36 31° E 04:37:45 17° SSE
ADEOS Rocket 3.4 04:33:10 10° N 04:37:12 42° NNW 04:37:12 42° NNW
Cosmos 1340 4.3 04:44:17 31° NNE 04:44:17 31° NNE 04:46:27 10° NNE
CENTAUR R/B 3.9 04:43:40 25° NW 04:44:19 25° NW 04:50:01 10° NNE
ATLAS 5 CENTAUR R/B 4.5 04:40:19 10° NNW 04:45:05 25° NE 04:50:10 10° E
USA 215 3.6 04:42:05 10° ESE 04:48:32 62° NE 04:54:58 10° NW
SL-08 ROCKET BODY 4.2 04:43:49 10° NNW 04:49:21 68° WNW 04:49:21 68° WNW
Cosmos 1536 Rocket 3.8 04:53:02 67° E 04:53:05 68° E 04:57:32 10° NNE
Cosmos 2333 Rocket 3.9 04:53:47 10° SSE 04:58:37 30° ESE 05:03:30 10° NE
Cosmos 2154 Rocket 4.4 04:53:22 10° N 04:59:31 61° E 05:05:38 10° SSE
Cosmos 1743 4.1 04:57:34 10° N 05:01:14 39° ENE 05:04:50 10° SSE
Cosmos 2322 3.8 05:04:46 54° W 05:05:14 56° WNW 05:10:53 10° NNE
PSLV R/B 4.3 05:02:28 10° NNE 05:06:43 51° E 05:08:52 26° SSE
CZ-4B R/B 2.8 05:04:39 10° NNE 05:08:01 68° ENE 05:08:01 68° ENE
Cosmos 2327 Rocket 4.4 05:05:10 10° NNW 05:11:19 60° W 05:13:53 35° SSW
Meteor 1-18 Rocket 4.3 05:12:25 50° W 05:12:49 51° WNW 05:18:16 10° N
ARIANE 5 R/B 4.4 05:12:25 10° NNW 05:14:22 16° NW 05:14:22 16° NW
EO 1 Del DPAF 3.4 05:13:26 14° SSE 05:16:43 72° ENE 05:20:34 10° N
Cosmos 1610 Rocket 4.4 05:11:56 10° NNW 05:18:12 72° W 05:24:29 10° S
Nadezhda 1 Rocket 3.9 05:16:39 37° SSW 05:18:59 63° W 05:25:02 10° N
Meteor 1-12 Rocket 4.2 05:13:47 10° NNW 05:19:19 56° W 05:22:22 26° SSW
Meteor 2-13 Rocket 4.4 05:15:58 10° NNW 05:21:59 59° W 05:27:43 11° S
Cosmos 2333 4.1 05:21:51 34° SSW 05:24:28 84° WNW 05:30:12 10° NNE
Cosmos 1844 4.2 05:19:49 10° NNW 05:25:33 62° ENE 05:31:11 10° SE
Cosmos 1570 Rocket 4.0 05:24:16 43° SW 05:25:48 63° WNW 05:31:00 10° NNE
Meteor 1-13 Rocket 4.1 05:23:37 17° S 05:28:00 89° ENE 05:33:39 10° N
Cosmos 1898 Rocket 4.4 05:23:37 10° N 05:28:42 50° ENE 05:33:42 10° SE
BREEZE M DEB (TANK) 4.2 05:19:06 10° WNW 05:32:24 56° NNE 05:36:26 10° E
CZ-4B DEB 4.1 05:27:37 10° NNE 05:33:12 80° WNW 05:37:41 16° SSW
MOS 1 Rocket 3.8 05:29:07 10° N 05:33:22 35° WNW 05:33:35 35° WNW
CZ-4B R/B 3.1 05:28:08 10° NNE 05:33:47 79° WNW 05:38:17 16° SSW
Tiangong 2 1.1 05:34:35 66° S 05:34:35 66° S 05:37:30 10° ESE
IRS-P2 Rocket 4.5 05:30:31 10° NNE 05:35:45 86° WNW 05:40:28 13° SSW
Cosmos 2341 Rocket 3.9 05:34:00 10° N 05:40:17 86° W 05:46:29 10° S
Cosmos 2322 Rocket 4.2 05:40:45 11° NW 05:41:36 11° NW 05:43:19 10° NNW
Cosmos 1238 Rocket 2.3 05:42:00 48° NW 05:42:00 48° NW 05:44:34 10° N
IRS-1C Rocket 4.1 05:37:33 10° N 05:42:43 60° WNW 05:46:22 19° SSW
Cosmos 1980 4.3 05:38:38 10° S 05:44:09 58° ESE 05:49:42 10° NNE
ERS-2 2.7 05:40:46 10° NNE 05:44:26 59° ESE 05:48:04 10° S
IRAS Rocket 4.2 05:41:30 10° N 05:47:01 68° WNW 05:52:15 12° SSW
SL-16 R/B 4.3 05:46:02 10° NW 05:47:10 11° NW 05:48:30 10° NNW
CZ-2C R/B 3.7 05:46:59 10° S 05:51:28 54° W 05:55:55 10° NNW
Okean O Rocket 2.3 05:48:21 10° N 05:52:23 35° WNW 05:54:02 26° WSW
Cosmos 2219 Rocket 2.1 05:48:29 15° SSW 05:53:07 76° WNW 05:58:44 10° NNE
COSMOS 2428 3.2 05:51:56 24° WSW 05:54:57 42° WNW 06:00:22 10° N
Cosmos 1937 Rocket 4.0 05:52:42 10° NNW 05:58:01 66° ENE 06:03:15 10° SSE
Cosmos 1025 Rocket 3.0 05:53:41 10° S 05:58:03 89° WNW 06:02:29 10° N
Meteor 2-9 Rocket 4.2 05:53:04 10° N 05:58:47 89° W 06:04:17 10° S
NOSS 0 Rocket 4.0 05:54:14 10° SSW 06:00:24 86° ESE 06:06:36 10° NNE
GENESIS II 4.5 05:57:23 13° SSW 06:00:58 71° ESE 06:05:03 10° NE
Cosmos 1844 Rocket 2.8 05:55:38 10° NNW 06:01:01 51° WSW 06:06:22 10° S
Meteor 1-23 Rocket 4.3 05:55:24 10° S 06:01:13 88° E 06:07:01 10° N
Lacrosse 4 Rocket 3.1 06:03:24 16° SW 06:03:24 16° SW 06:04:50 10° SSW
Cosmos 1437 3.2 05:59:46 10° S 06:03:00 64° E 06:06:15 10° NNE
Okean-O 2.6 06:01:48 10° NNE 06:06:15 90° ESE 06:10:41 10° SSW
DELTA 2 R/B (1) 3.6 06:02:43 20° W 06:06:41 84° S 06:12:15 10° E
Cosmos 841 Rocket 4.4 06:03:45 10° S 06:08:43 50° ESE 06:13:41 10° NNE
Cosmos 1892 Rocket 4.2 06:04:29 10° S 06:08:45 58° E 06:13:04 10° NNE
NOAA 6 4.5 06:06:45 10° NNE 06:11:51 65° ESE 06:16:55 10° S
Cosmos 2360 Rocket 3.9 06:09:38 13° WNW 06:11:53 16° NW 06:15:17 10° NNW
USA 116 4.0 06:07:47 10° S 06:11:56 65° W 06:16:41 10° NNW
EXPRESS MD2 4.2 06:07:23 10° SW 06:12:21 41° SE 06:15:09 10° ENE
Cosmos 2285 Rocket 4.0 06:06:09 10° SSW 06:12:32 70° WNW 06:18:59 10° NNE
ADEOS II 2.9 06:09:38 10° N 06:14:15 32° WNW 06:18:43 11° SW
Cosmos 2278 Rocket 2.2 06:11:00 10° NNW 06:16:42 89° ENE 06:22:22 10° SSE
Cosmos 2298 Rocket 4.0 06:12:06 10° NNW 06:17:25 68° WSW 06:22:40 10° S
Cosmos 1814 Rocket 3.9 06:14:15 10° SSW 06:19:26 73° WNW 06:24:37 10° NNE
Cosmos 2237 Rocket 2.2 06:15:22 10° SSW 06:21:02 77° WNW 06:26:46 10° NNE
Cosmos 1959 Rocket 4.4 06:15:02 10° N 06:21:09 81° W 06:27:17 10° S
Cosmos 1441 Rocket 4.0 06:18:16 10° S 06:22:09 58° E 06:26:05 10° NNE
Aureole 2 Rocket 2.5 06:20:58 10° SSW 06:24:34 54° WNW 06:27:53 10° N
Meteor 1-15 Rocket 4.3 06:21:04 10° NNW 06:26:59 72° W 06:32:51 10° S
Cosmos 1515 4.0 06:23:09 10° S 06:26:59 72° E 06:30:50 10° NNE
Meteor 2-4 Rocket 4.0 06:22:00 10° SSW 06:27:18 43° WNW 06:32:30 10° N
Cosmos 405 Rocket 3.0 06:24:25 10° SSW 06:28:22 51° WNW 06:32:18 10° N
Cosmos 371 Rocket 3.6 06:23:42 10° S 06:28:32 73° ESE 06:33:24 10° NNE
Cosmos 1666 3.7 06:26:11 10° NW 06:29:24 25° W 06:32:36 10° SW
ATLAS 5 CENTAUR R/B 2.4 06:24:17 10° NW 06:30:21 75° WSW 06:36:54 10° SSE
USA 215 3.8 06:25:42 10° SSE 06:31:42 38° SW 06:37:43 10° WNW
Okean 2 3.6 06:28:02 10° SSW 06:32:04 49° W 06:36:09 10° N
Cosmos 332 Rocket 3.8 06:27:18 10° SSW 06:32:13 79° WNW 06:37:08 10° NNE
Cosmos 2366 rocket 4.0 06:28:16 10° N 06:34:36 73° W 06:40:55 10° S
CZ-3A R/B 1.2 06:35:50 11° WNW 06:36:39 17° NNW 06:38:06 10° NNE
Cosmos 1346 3.3 06:34:07 10° S 06:36:55 67° E 06:39:46 10° NNE
Cosmos 2333 Rocket 2.8 06:37:24 10° SW 06:42:42 39° WNW 06:48:04 10° N
SKYMED 2 3.5 06:39:27 10° S 06:43:46 75° WSW 06:48:08 10° NNW
Cosmos 2058 Rocket 3.1 06:40:15 10° NNW 06:44:44 73° W 06:49:09 10° S
Cosmos 1867 3.8 06:40:12 10° NW 06:45:24 47° WSW 06:50:34 10° S
USA 229 DEB 4.2 06:39:21 10° WSW 06:45:48 43° NW 06:52:24 10° NNE
USA 229 4.2 06:39:26 10° WSW 06:45:54 43° NW 06:52:30 10° NNE
